Pagrindinis puslapis
METAR-TAF:

METAR-TAF

Oro uostai :

Wilbarger County Airport

Vernon, Teksasas, Jungtinės Amerikos Valstijos

platuma: 34-13-32N, ilguma: 099-17-01W, Aukštis: 386 m

Dabartinis oras

Ataskaita buvo paskelbta 18 minutes, ne 11:15 UTC
Ramus vėjas
Temperatūra 13°C
Drėgmė 51%
Slėgis 1021 hPa
Matomumas: 16.1 km
Giedras dangus

METAR: KF05 231115Z AUTO 00000KT 10SM CLR 13/03 A3014 RMK AO2 T01260032

Laikas: 06:33 (11:33 UTC)


TAF: trūkstamas

Orai ataskaitas ir orų prognozės (METAR, TAF).

turimą stotys yra geltonos ir raudonos taškus žemėlapyje.

Perkelti pele per norėdami pamatyti stoties vardą.

Tada spustelėkite, norėdami matyti oro stebėjimo ir prognozės.

Norėdami pakeisti žemėlapį: spustelėkite ant žalios mygtukų su juodo kryžiaus žemyn,; žalią mygtuką su brūkšneliu, jei norite nutolinti; arba žalių rodyklių gretimoms žemėlapius.


METAR-TAF: